Regional Weather Roundup
Issued by NWS Northern Indiana

Home | Current Version | Previous Version | Graphics & Text | Print | Product List | Glossary On
Versions: 1 2 3 4 5 6 7 8 9 10 11 12 13 14 15 16 17 18 19 20 21 22 23 24 25 26 27 28 29 30 31 32 33 34 35 36 37 38 39 40 41 42 43 44 45 46 47 48 49 50
000
ASUS43 KIWX 310210
RWRIWX

KIWX WEATHER ROUNDUP
NATIONAL WEATHER SERVICE NORTHERN INDIANA
1000 PM EDT THU JUL 30 2015

NOTE: "FAIR" INDICATES FEW OR NO CLOUDS BELOW 12,000 FEET WITH NO
SIGNIFICANT WEATHER AND/OR OBSTRUCTIONS TO VISIBILITY.

* THESE STATIONS ARE NOT UNDER NWS QUALITY CONTROL. THEY ALSO MAY NOT
  REPORT WEATHER SUCH AS PRECIPITATION OR FOG.

INZ001>027-310300-
NORTHERN INDIANA

CITY           SKY/WX    TMP DP  RH WIND       PRES   REMARKS
GARY*          CLEAR     81  59  47 W12       30.01R
VALPARAISO     CLEAR     73  58  59 W6        30.01S
MICHIGAN CITY* CLEAR     68  61  77 CALM      30.00S
LAPORTE*       CLEAR     67  65  91 CALM      30.01S
KNOX*          CLEAR     72  59  64 W5        30.00S
SOUTH BEND     CLEAR     73  60  63 SW5       30.01R
GOSHEN         CLEAR     70  61  73 S3        30.01R
MONTICELLO*    CLEAR     73  64  71 W5        30.02S
LOGANSPORT*    CLEAR     68  57  68 SW3       30.04R HAZE
ROCHESTER*     CLEAR     77  57  50 W5        30.03R
WARSAW*        CLEAR     68  61  77 CALM      30.02R
ANGOLA*        CLEAR     68  61  77 CALM      30.01S
FORT WAYNE     CLEAR     69  61  75 SW5       30.03R
HUNTINGTON*    PTCLDY    70  64  81 CALM      30.02S
PERU/GRISSOM   CLEAR     69  61  76 W7        30.02R
MARION*        PTCLDY    68  62  83 CALM      30.04S

$$
INZ028>050-310300-
CENTRAL INDIANA

CITY           SKY/WX    TMP DP  RH WIND       PRES   REMARKS
LAFAYETTE      CLEAR     71  64  78 W3        30.03S
KOKOMO*        CLEAR     73  59  60 W8        30.04R
MUNCIE*        CLEAR     72  60  66 W3        30.04R
INDIANAPOLIS   PTCLDY    75  60  59 W6        30.04S

$$
MIZ043>046-050>051-056>058-064>065-071>073-077>080-310300-
SOUTHWEST LOWER MICHIGAN

CITY           SKY/WX    TMP DP  RH WIND       PRES   REMARKS
BATTLE CREEK   CLEAR     73  58  59 SW5       29.99R
BENTON HARBOR  CLEAR     72  60  66 SW6       29.98S
COLDWATER*     CLEAR     68  58  69 SW3       30.00R
HILLSDALE*     CLEAR     71  58  62 CALM      30.01R
HOLLAND        CLEAR     70  62  76 SW3       29.97R
GRAND RAPIDS   PTCLDY    75  58  55 SW5       29.96R
KALAMAZOO      CLEAR     72  58  61 W6        29.98S
STURGIS*       CLEAR     72  61  68 CALM      30.00R
THREE RIVERS*  FAIR      70  60  70 SW5       30.00R

$$
OHZ001>008-015>018-024>025-310300-
NORTHWEST OHIO

CITY           SKY/WX    TMP DP  RH WIND       PRES   REMARKS
WAUSEON*       FAIR      68  61  77 W7        30.00R
DEFIANCE       LGT RAIN  72  57  59 CALM      30.00R
FINDLAY        CLEAR     71  58  63 W5        30.00R
TOLEDO EXPRESS CLEAR     73  58  59 SW5       29.98R
TOLEDO METCALF CLEAR     74  58  57 W6        29.99R
LIMA           CLEAR     70  57  63 W5        30.03R

$$
AND FOR LAKE MICHIGAN COASTAL AND OPEN LAKE BUOY OBSERVATIONS

STATION/POSITION TEMP    WIND        PRES    VSBY  WAVE
                 AIR SEA DIR/SP/G                  HT/PER
                 (F)     (DEG/KT/KT) (MB)    (MI)  (FT/S)
CALUMET HARBOR    83     270/  5/ 10   N/A
MICHIGAN CITY     80     210/  5/  5   N/A
BURNS HARBOR      80     310/  5/  8 1016.3R
SAINT JOSEPH      76     190/  8/ 10 1016.3R
4 MI NW BRIDGMAN  76 74  260/  8/  8   N/A           1/ 3
MICHIGAN CITY     77 75  220/  4/  6   N/A           1
MICHIGAN CITY CG  80 77  230/  4       N/A       6   0

$$
&&



USA.gov is the U.S. government's official web portal to all federal, state and local government web resources and services.